VTD146 UWLL-UWLL

Flight info

Callsign VTD146
Flight time 0h 39m
Altitude 2500
Route BOLKL LOMY PASLO/N0130F070 LOMY BOLKL
Aircraft DA42/L-SDEFGRY/C

Departure

Time 2026-05-04 11:35
Airport Ulyanovsk Baratayevka Airport (UWLL)

Arrival

Time 2026-05-04 12:14
Airport Ulyanovsk Baratayevka Airport (UWLL)
Time Latitude Longitude Altitude Speed Heading
2026-05-04 11:26 54.27158 48.23656 399 ft 0 kts 32°
2026-05-04 11:29 54.27165 48.23663 399 ft 5 kts 19°
2026-05-04 11:29 54.27193 48.23609 399 ft 5 kts 327°
2026-05-04 11:29 54.27244 48.23645 399 ft 12 kts 32°
2026-05-04 11:29 54.27319 48.23725 399 ft 13 kts 32°
2026-05-04 11:31 54.27666 48.23504 399 ft 7 kts 257°
2026-05-04 11:33 54.27664 48.23493 399 ft 0 kts 257°
2026-05-04 11:33 54.27663 48.23482 399 ft 5 kts 256°
2026-05-04 11:33 54.27642 48.23326 401 ft 17 kts 257°
2026-05-04 11:34 54.27607 48.23193 403 ft 7 kts 214°
2026-05-04 11:34 54.27604 48.23189 403 ft 0 kts 213°
2026-05-04 11:34 54.27420 48.22992 402 ft 63 kts 212°
2026-05-04 11:35 54.26918 48.22463 468 ft 96 kts 211°
2026-05-04 11:35 54.26339 48.21856 818 ft 97 kts 215°
2026-05-04 11:35 54.25764 48.21229 1093 ft 104 kts 215°
2026-05-04 11:35 54.25138 48.20590 1390 ft 105 kts 212°
2026-05-04 11:36 54.24428 48.20192 1705 ft 108 kts 185°
2026-05-04 11:36 54.23670 48.20325 1951 ft 114 kts 173°
2026-05-04 11:36 54.22881 48.20542 2229 ft 116 kts 176°
2026-05-04 11:36 54.22055 48.20697 2442 ft 131 kts 178°
2026-05-04 11:37 54.21113 48.20787 2444 ft 141 kts 182°
2026-05-04 11:37 54.20125 48.20760 2489 ft 144 kts 185°
2026-05-04 11:37 54.19109 48.20706 2479 ft 148 kts 185°
2026-05-04 11:37 54.18074 48.20633 2475 ft 147 kts 186°
2026-05-04 11:38 54.17047 48.20581 2508 ft 147 kts 186°
2026-05-04 11:38 54.16026 48.20533 2508 ft 148 kts 186°
2026-05-04 11:38 54.14986 48.20491 2518 ft 150 kts 184°
2026-05-04 11:38 54.13943 48.20479 2555 ft 151 kts 179°
2026-05-04 11:39 54.12891 48.20878 2443 ft 159 kts 163°
2026-05-04 11:39 54.11922 48.21766 2479 ft 159 kts 147°
2026-05-04 11:40 54.10704 48.31868 2438 ft 155 kts 81°
2026-05-04 11:41 54.10769 48.33693 2399 ft 155 kts 89°
2026-05-04 11:41 54.10722 48.35507 2424 ft 151 kts 92°
2026-05-04 11:41 54.10657 48.37254 2420 ft 149 kts 93°
2026-05-04 11:41 54.10597 48.38983 2593 ft 142 kts 91°
2026-05-04 11:42 54.10553 48.40624 2856 ft 137 kts 91°
2026-05-04 11:42 54.10450 48.42244 3124 ft 140 kts 96°
2026-05-04 11:42 54.10370 48.43864 3409 ft 135 kts 91°
2026-05-04 11:42 54.10331 48.45479 3580 ft 142 kts 90°
2026-05-04 11:43 54.10299 48.47170 3718 ft 140 kts 90°
2026-05-04 11:43 54.10317 48.48834 3877 ft 143 kts 75°
2026-05-04 11:43 54.10861 48.50198 3996 ft 140 kts 29°
2026-05-04 11:43 54.11784 48.50437 4015 ft 138 kts 341°
2026-05-04 11:44 54.12530 48.49468 3997 ft 138 kts 301°
2026-05-04 11:44 54.12704 48.47876 3999 ft 141 kts 262°
2026-05-04 11:44 54.12201 48.46463 4015 ft 148 kts 219°
2026-05-04 11:44 54.11204 48.46044 3939 ft 157 kts 174°
2026-05-04 11:45 54.10270 48.46946 3924 ft 160 kts 126°
2026-05-04 11:45 54.10170 48.48743 3953 ft 156 kts 62°
2026-05-04 11:45 54.11000 48.49692 3992 ft 147 kts 358°
2026-05-04 11:45 54.11887 48.48952 3972 ft 147 kts 304°
2026-05-04 11:46 54.12156 48.47311 3988 ft 143 kts 281°
2026-05-04 11:46 54.12759 48.46188 3969 ft 147 kts
2026-05-04 11:46 54.13189 48.47594 3980 ft 158 kts 100°
2026-05-04 11:46 54.12979 48.49428 3973 ft 158 kts 101°
2026-05-04 11:47 54.12315 48.50688 3976 ft 152 kts 185°
2026-05-04 11:47 54.11811 48.49500 3973 ft 140 kts 289°
2026-05-04 11:47 54.12005 48.47997 3981 ft 144 kts 237°
2026-05-04 11:47 54.11067 48.48031 3960 ft 161 kts 127°
2026-05-04 11:48 54.10915 48.49884 4039 ft 157 kts 84°
2026-05-04 11:48 54.11454 48.51236 4392 ft 138 kts 13°
2026-05-04 11:48 54.12173 48.50687 4819 ft 115 kts 290°
2026-05-04 11:48 54.11897 48.49494 5119 ft 125 kts 217°
2026-05-04 11:49 54.11346 48.48449 5411 ft 121 kts 268°
2026-05-04 11:49 54.11775 48.47397 5736 ft 120 kts 347°
2026-05-04 11:49 54.12587 48.47901 5916 ft 137 kts 25°
2026-05-04 11:49 54.13470 48.47853 5973 ft 134 kts 318°
2026-05-04 11:50 54.13675 48.46306 5873 ft 149 kts 252°
2026-05-04 11:50 54.12881 48.45325 5941 ft 146 kts 187°
2026-05-04 11:50 54.11915 48.45875 5888 ft 146 kts 153°
2026-05-04 11:50 54.11086 48.46741 5907 ft 135 kts 134°
2026-05-04 11:51 54.10617 48.48046 5967 ft 125 kts 107°
2026-05-04 11:51 54.10802 48.49298 5936 ft 111 kts 29°
2026-05-04 11:51 54.11462 48.49424 5985 ft 94 kts 333°
2026-05-04 11:51 54.11918 48.48681 5980 ft 92 kts 293°
2026-05-04 11:52 54.11803 48.47629 5928 ft 96 kts 242°
2026-05-04 11:52 54.11729 48.46624 5822 ft 90 kts 312°
2026-05-04 11:52 54.12311 48.46518 5763 ft 101 kts 37°
2026-05-04 11:52 54.12453 48.47674 5859 ft 97 kts 83°
2026-05-04 11:53 54.12496 48.48755 5897 ft 88 kts 78°
2026-05-04 11:53 54.12576 48.49728 5874 ft 80 kts 75°
2026-05-04 11:53 54.12654 48.50667 5763 ft 90 kts 84°
2026-05-04 11:53 54.12268 48.51618 5702 ft 101 kts 179°
2026-05-04 11:55 54.11305 48.49017 5399 ft 140 kts 120°
2026-05-04 11:55 54.10473 48.49626 5482 ft 135 kts 196°
2026-05-04 11:56 54.09924 48.48570 5515 ft 123 kts 274°
2026-05-04 11:56 54.10497 48.47566 5500 ft 132 kts 336°
2026-05-04 11:56 54.11241 48.46673 5505 ft 132 kts 309°
2026-05-04 11:56 54.11774 48.45425 5427 ft 126 kts 309°
2026-05-04 11:57 54.12593 48.45181 5327 ft 142 kts 27°
2026-05-04 11:57 54.12912 48.46699 5425 ft 145 kts 104°
2026-05-04 11:57 54.12231 48.47850 5440 ft 142 kts 172°
2026-05-04 11:57 54.11267 48.47989 5456 ft 144 kts 158°
2026-05-04 11:58 54.10973 48.49409 5411 ft 143 kts 52°
2026-05-04 11:58 54.11759 48.49558 5408 ft 126 kts 308°
2026-05-04 11:58 54.11958 48.48084 5280 ft 137 kts 261°
2026-05-04 11:58 54.11943 48.46507 5152 ft 139 kts 303°
2026-05-04 11:59 54.12824 48.46008 4980 ft 151 kts 18°
2026-05-04 11:59 54.13366 48.47538 4645 ft 175 kts 94°
2026-05-04 11:59 54.12673 48.49089 4504 ft 170 kts 161°
2026-05-04 11:59 54.11653 48.49739 4786 ft 143 kts 149°
2026-05-04 12:00 54.11166 48.51066 4980 ft 132 kts 93°
2026-05-04 12:00 54.11535 48.52317 5101 ft 116 kts 22°
2026-05-04 12:00 54.12273 48.52271 5185 ft 105 kts 328°
2026-05-04 12:00 54.12668 48.51324 5306 ft 101 kts 283°
2026-05-04 12:01 54.12503 48.50161 5410 ft 102 kts 246°
2026-05-04 12:01 54.12030 48.49212 5487 ft 106 kts 230°
2026-05-04 12:02 54.09644 48.42058 4496 ft 135 kts 269°
2026-05-04 12:03 54.09710 48.40456 4228 ft 137 kts 280°
2026-05-04 12:03 54.09949 48.38337 3895 ft 137 kts 282°
2026-05-04 12:03 54.10080 48.37262 3696 ft 136 kts 283°
2026-05-04 12:03 54.10357 48.35191 3326 ft 136 kts 283°
2026-05-04 12:04 54.10485 48.34145 3175 ft 133 kts 282°
2026-05-04 12:04 54.10643 48.32604 2907 ft 132 kts 280°
2026-05-04 12:04 54.10780 48.31070 2703 ft 133 kts 279°
2026-05-04 12:04 54.10897 48.29515 2502 ft 129 kts 279°
2026-05-04 12:05 54.11027 48.27999 2441 ft 130 kts 278°
2026-05-04 12:05 54.11106 48.26485 2414 ft 126 kts 276°
2026-05-04 12:05 54.11192 48.25011 2453 ft 126 kts 276°
2026-05-04 12:05 54.11294 48.23522 2472 ft 128 kts 285°
2026-05-04 12:06 54.11667 48.22170 2512 ft 126 kts 306°
2026-05-04 12:06 54.12374 48.21273 2504 ft 132 kts 331°
2026-05-04 12:06 54.13245 48.20697 2459 ft 139 kts 338°
2026-05-04 12:06 54.14157 48.20159 2452 ft 138 kts 339°
2026-05-04 12:07 54.15064 48.19648 2414 ft 138 kts 338°
2026-05-04 12:07 54.15972 48.19144 2415 ft 137 kts 339°
2026-05-04 12:07 54.16886 48.18662 2366 ft 140 kts 339°
2026-05-04 12:07 54.17820 48.18095 2241 ft 142 kts 337°
2026-05-04 12:08 54.18736 48.17517 2139 ft 140 kts 338°
2026-05-04 12:08 54.19669 48.16987 1973 ft 142 kts 341°
2026-05-04 12:08 54.20625 48.16517 1832 ft 144 kts 340°
2026-05-04 12:08 54.21574 48.16000 1695 ft 143 kts 340°
2026-05-04 12:09 54.22517 48.15511 1504 ft 142 kts 345°
2026-05-04 12:09 54.23456 48.15622 1463 ft 134 kts
2026-05-04 12:09 54.24327 48.16135 1415 ft 134 kts 12°
2026-05-04 12:09 54.25225 48.16526 1367 ft 130 kts
2026-05-04 12:10 54.26092 48.16988 1394 ft 132 kts 21°
2026-05-04 12:10 54.26879 48.17836 1396 ft 134 kts 30°
2026-05-04 12:10 54.27645 48.18687 1476 ft 131 kts 25°
2026-05-04 12:10 54.28459 48.19493 1466 ft 139 kts 24°
2026-05-04 12:11 54.29299 48.20310 1510 ft 138 kts 26°
2026-05-04 12:11 54.30120 48.21204 1481 ft 143 kts 28°
2026-05-04 12:11 54.30945 48.22124 1424 ft 137 kts 27°
2026-05-04 12:11 54.31729 48.22959 1385 ft 130 kts 28°
2026-05-04 12:12 54.32351 48.24043 1368 ft 129 kts 62°
2026-05-04 12:12 54.32312 48.25514 1360 ft 128 kts 119°
2026-05-04 12:12 54.31853 48.26788 1341 ft 122 kts 116°
2026-05-04 12:12 54.31265 48.27530 1315 ft 106 kts 178°
2026-05-04 12:13 54.30671 48.26953 1242 ft 100 kts 230°
2026-05-04 12:14 54.27261 48.22820 400 ft 25 kts 212°
2026-05-04 12:15 54.27145 48.22731 399 ft 15 kts 169°
2026-05-04 12:15 54.27024 48.22776 400 ft 17 kts 166°
2026-05-04 12:15 54.26991 48.22789 400 ft 0 kts 167°
2026-05-04 12:15 54.26938 48.22810 400 ft 15 kts 164°
2026-05-04 12:16 54.26952 48.22920 399 ft 14 kts 34°
2026-05-04 12:16 54.27024 48.23036 399 ft 13 kts 100°
2026-05-04 12:16 54.26965 48.23202 399 ft 18 kts 123°
2026-05-04 12:16 54.26960 48.23341 399 ft 16 kts 31°
2026-05-04 12:17 54.27073 48.23462 399 ft 18 kts 33°
2026-05-04 12:17 54.27152 48.23547 399 ft 7 kts 48°
2026-05-04 12:17 54.27142 48.23636 399 ft 7 kts 77°
2026-05-04 12:17 54.27157 48.23656 399 ft 0 kts 32°